This is the latest recevied weather packets stored in our database for station/object N3SBK. If no packets are shown the sender has not sent any weather packets the latest 10 day(s).
| Time | Temp. | Humidity | Pressure | Rain* | Wind** | Luminosity | Snow |
|---|---|---|---|---|---|---|---|
| 1787955951 | 22.78° C | 68% | 1011.9 hPa | 0 mm | - | 61 W/m² | - |
| 1787955647 | 22.78° C | 70% | 1011.9 hPa | 0 mm | - | 71 W/m² | - |
| 1787955343 | 22.78° C | 70% | 1012 hPa | 0 mm | - | 88 W/m² | - |
| 1787955041 | 22.78° C | 71% | 1012 hPa | 0 mm | - | 76 W/m² | - |
| 1787954737 | 23.33° C | 69% | 1011.9 hPa | 0 mm | - | 66 W/m² | - |
| 1787954433 | 23.33° C | 72% | 1011.8 hPa | 0 mm | - | 81 W/m² | - |
| 1787954127 | 23.33° C | 70% | 1012 hPa | 0 mm | - | 83 W/m² | - |
| 1787953826 | 22.78° C | 67% | 1011.8 hPa | 0 mm | - | 105 W/m² | - |
| 1787953526 | 22.78° C | 70% | 1011.8 hPa | 0 mm | - | 108 W/m² | - |
| 1787953226 | 22.78° C | 70% | 1011.8 hPa | 0 mm | - | 115 W/m² | - |
| 1787952924 | 22.78° C | 70% | 1011.7 hPa | 0 mm | - | 89 W/m² | - |
| 1787952619 | 22.78° C | 68% | 1011.9 hPa | 0 mm | - | 77 W/m² | - |
| 1787952318 | 23.33° C | 70% | 1011.8 hPa | 0 mm | - | 66 W/m² | - |
| 1787952015 | 23.33° C | 68% | 1011.8 hPa | 0 mm | - | 89 W/m² | - |
| 1787951715 | 23.33° C | 67% | 1011.9 hPa | 0 mm | - | 117 W/m² | - |
| 1787951410 | 23.33° C | 70% | 1011.7 hPa | 0 mm | - | 105 W/m² | - |
| 1787951106 | 23.33° C | 69% | 1011.7 hPa | 0 mm | - | 84 W/m² | - |
| 1787950801 | 23.33° C | 67% | 1011.8 hPa | 0 mm | - | 87 W/m² | - |
| 1787950496 | 23.89° C | 67% | 1011.6 hPa | 0 mm | - | 83 W/m² | - |
| 1787950193 | 23.89° C | 67% | 1011.5 hPa | 0 mm | - | 139 W/m² | - |
| 1787949889 | 23.89° C | 64% | 1011.5 hPa | 0 mm | - | 113 W/m² | - |
| 1787949589 | 25° C | 64% | 1011.5 hPa | 0 mm | - | 122 W/m² | - |
| 1787949284 | 25.56° C | 57% | 1011.3 hPa | 0 mm | - | 154 W/m² | - |
| 1787948979 | 25.56° C | 60% | 1011.4 hPa | 0 mm | - | 376 W/m² | - |
| 1787948675 | 25° C | 61% | 1011.3 hPa | 0 mm | - | 381 W/m² | - |
* Rain latest hour (hover to see other rain measurements)
** Current wind speed in m/s (hover to see current wind gust speed)